DW5181 Beverly MA US current weather conditions

sailwx.info

Wind from 151

Air temperature 16.1° C
Dewpoint 15.6° C

Last reported at 2020-Jul-07 09:05 UTC.
Time now 2020-Jul-07 09:33 UTC

Location: N 42°35' W 070°52'.
View on Google Maps.

See reports from other nearby stations

  
Tides and Currents Weather Stations Pressure Air Temp Water Temp Dewpoint Dewpoint Depression Visibility Wind Speed Wind Dir Waves Ship Positions
date/time (UTC)wind fromknots sea level pressurealtimeterstation pressurevisibilityair tempwater tempwave heightnotes
2020-Jul-07 09:05 151 16.1
2020-Jul-07 09:00 123 15.6
2020-Jul-07 08:55 142 15.6
2020-Jul-07 08:50 143 15.6
2020-Jul-07 08:45 142 15.6
2020-Jul-07 08:40 142 15.6
2020-Jul-07 08:35 142 15.6
2020-Jul-07 08:30 142 15.6
2020-Jul-07 08:25 142 15.6
2020-Jul-07 08:20 177 15.6
2020-Jul-07 08:15 177 15.6
2020-Jul-07 08:10 177 15.0
2020-Jul-07 08:05 177 15.0
2020-Jul-07 08:00 177 15.0
2020-Jul-07 07:55 177 15.6
2020-Jul-07 07:50 178 15.6
2020-Jul-07 07:45 177 15.0
2020-Jul-07 07:40 178 15.0
2020-Jul-07 07:35 177 15.0
2020-Jul-07 07:30 177 15.0
2020-Jul-07 07:25 177 15.0
2020-Jul-07 07:20 177 15.0
2020-Jul-07 07:15 178 15.0
2020-Jul-07 07:10 177 15.0
2020-Jul-07 07:05 177 15.0
2020-Jul-07 07:00 177 15.0
2020-Jul-07 06:55 177 15.0
2020-Jul-07 06:50 177 15.0
2020-Jul-07 06:45 177 15.0
2020-Jul-07 06:40 177 15.0
2020-Jul-07 06:35 177 15.0
2020-Jul-07 06:30 177 15.6
2020-Jul-07 06:25 177 15.6
2020-Jul-07 06:20 177 15.6
2020-Jul-07 06:15 177 15.6
2020-Jul-07 06:10 177 15.6
2020-Jul-07 06:05 177 15.0
2020-Jul-07 06:00 177 15.6
2020-Jul-07 05:55 177 15.6
2020-Jul-07 05:50 177 15.6
2020-Jul-07 05:45 178 15.6
2020-Jul-07 05:40 177 15.6
2020-Jul-07 05:35 177 15.6
2020-Jul-07 05:30 178 15.6
2020-Jul-07 05:25 177 15.6
2020-Jul-07 05:20 177 15.6
2020-Jul-07 05:15 177 15.6
2020-Jul-07 05:10 177 15.6
2020-Jul-07 05:05 177 15.6
2020-Jul-07 05:00 177 15.6
2020-Jul-07 04:55 177 15.6
2020-Jul-07 04:50 177 15.6
2020-Jul-07 04:45 178 15.6
2020-Jul-07 04:40 177 15.6
2020-Jul-07 04:35 177 15.6
2020-Jul-07 04:30 177 15.6
2020-Jul-07 04:25 177 15.6
2020-Jul-07 04:20 178 15.6
2020-Jul-07 04:15 177 15.6
2020-Jul-07 04:10 177 15.6
2020-Jul-07 04:05 177 15.6
2020-Jul-07 04:00 177 16.1
2020-Jul-07 03:55 177 16.1
2020-Jul-07 03:50 177 16.1
2020-Jul-07 03:45 177 16.1
2020-Jul-07 03:40 177 16.1
2020-Jul-07 03:35 177 16.1
2020-Jul-07 03:30 177 16.1
2020-Jul-07 03:25 177 16.1
2020-Jul-07 03:20 177 16.1
2020-Jul-07 03:15 177 16.1
2020-Jul-07 03:10 177 16.7
2020-Jul-07 03:05 177 16.7
2020-Jul-07 03:00 177 16.7
2020-Jul-07 02:55 177 16.7
2020-Jul-07 02:50 177 16.7
2020-Jul-07 02:45 211 16.7
2020-Jul-07 02:40 211 0 gusting 1 16.7
2020-Jul-07 02:30 224 16.7
2020-Jul-07 02:25 056 16.7
2020-Jul-07 02:20 273 16.7
2020-Jul-07 02:15 240 16.1
2020-Jul-07 02:10 103 16.1
2020-Jul-07 02:05 103 16.7
2020-Jul-07 02:00 103 16.7
2020-Jul-07 01:55 103 16.7
2020-Jul-07 01:50 129 16.7
2020-Jul-07 01:45 126 16.7
2020-Jul-07 01:35 120 16.7
2020-Jul-07 01:30 120 0 gusting 1 16.7
2020-Jul-07 01:25 122 16.7
2020-Jul-07 01:20 117 16.7
2020-Jul-07 01:15 117 16.7
2020-Jul-07 01:10 150 0 gusting 1 16.7
2020-Jul-07 01:05 177 16.7
2020-Jul-07 01:00 177 0 gusting 1 17.2
2020-Jul-07 00:55 125 17.2
2020-Jul-07 00:50 165 17.2
2020-Jul-07 00:45 165 17.2
2020-Jul-07 00:40 133 0 gusting 1 17.2
2020-Jul-07 00:35 167 0 gusting 1 17.2
2020-Jul-07 00:30 098 17.2
2020-Jul-07 00:25 132 17.2
2020-Jul-07 00:20 133 0 gusting 2 17.8
2020-Jul-07 00:15 238 0 gusting 2 17.8
2020-Jul-07 00:10 118 0 gusting 3 17.8
2020-Jul-07 00:05 149 0 gusting 2 17.8
2020-Jul-07 00:00 150 17.8
2020-Jul-06 23:55 242 0 gusting 4 18.3
2020-Jul-06 23:50 125 1 gusting 4 18.3
2020-Jul-06 23:45 091 1 gusting 5 18.3
2020-Jul-06 23:40 149 0 gusting 5 18.3
2020-Jul-06 23:35 091 1 gusting 3 18.3
2020-Jul-06 23:30 096 0 gusting 2 18.9
2020-Jul-06 23:25 132 0 gusting 6 18.9
2020-Jul-06 23:20 118 2 gusting 6 18.9
2020-Jul-06 23:15 109 0 gusting 3 18.9
2020-Jul-06 23:10 123 0 gusting 3 18.9
2020-Jul-06 23:05 214 0 gusting 2 19.4
2020-Jul-06 23:00 122 0 gusting 3 19.4
2020-Jul-06 22:55 166 1 gusting 3 19.4
2020-Jul-06 22:50 116 1 gusting 5 19.4
2020-Jul-06 22:45 056 2 gusting 4 20.0
2020-Jul-06 22:40 207 1 gusting 4 20.0
2020-Jul-06 22:35 179 0 gusting 2 20.6
2020-Jul-06 22:30 139 1 gusting 5 20.6
2020-Jul-06 22:25 127 1 gusting 5 20.6
2020-Jul-06 22:20 270 1 gusting 4 21.1
2020-Jul-06 22:15 131 2 gusting 4 21.1
2020-Jul-06 22:10 116 1 gusting 5 21.1
2020-Jul-06 22:05 094 2 gusting 5 21.7
2020-Jul-06 22:00 116 0 gusting 2 21.7
2020-Jul-06 21:55 109 1 gusting 6 21.7
2020-Jul-06 21:50 142 0 gusting 3 21.7
2020-Jul-06 21:45 235 1 gusting 6 21.7
2020-Jul-06 21:40 079 2 gusting 6 21.7
2020-Jul-06 21:35 142 1 gusting 6 22.2
2020-Jul-06 21:30 177 1 gusting 7 22.2
2020-Jul-06 21:25 126 3 gusting 7 22.2
2020-Jul-06 21:20 155 2 gusting 4 23.3
2020-Jul-06 21:15 097 0 gusting 3 23.3
2020-Jul-06 21:10 252 1 gusting 4 23.3
2020-Jul-06 21:05 145 1 gusting 6 23.3
2020-Jul-06 21:00 117 2 gusting 6 23.3
2020-Jul-06 20:55 172 1 gusting 4 23.9
2020-Jul-06 20:50 103 0 gusting 4 24.4
2020-Jul-06 20:45 105 1 gusting 4 23.9
2020-Jul-06 20:40 179 1 gusting 3 24.4
2020-Jul-06 20:35 083 1 gusting 5 24.4
2020-Jul-06 20:30 127 0 gusting 5 23.9
2020-Jul-06 20:25 059 0 gusting 2 23.3
2020-Jul-06 20:20 030 1 gusting 2 23.3
2020-Jul-06 20:15 021 2 gusting 3 23.3
2020-Jul-06 20:10 108 1 gusting 4 23.3
2020-Jul-06 20:05 352 1 gusting 4 23.3
2020-Jul-06 20:00 045 1 gusting 3 23.3
2020-Jul-06 19:55 049 1 gusting 4 22.8
2020-Jul-06 19:50 044 2 gusting 4 22.8
2020-Jul-06 19:45 009 1 gusting 3 22.8
2020-Jul-06 19:40 090 1 gusting 3 22.2
2020-Jul-06 19:35 027 2 gusting 4 22.2
2020-Jul-06 19:30 016 2 gusting 5 23.3
2020-Jul-06 19:25 056 1 gusting 4 22.8
2020-Jul-06 19:20 029 2 gusting 3 23.3
2020-Jul-06 19:15 033 0 gusting 2 23.3
2020-Jul-06 19:10 054 1 gusting 2 23.9
2020-Jul-06 19:05 043 1 gusting 2 23.9
2020-Jul-06 19:00 094 1 gusting 4 23.9
2020-Jul-06 18:55 360 1 gusting 4 23.3
2020-Jul-06 18:50 068 1 gusting 2 23.3
2020-Jul-06 18:45 213 1 gusting 2 22.8
2020-Jul-06 18:40 315 1 gusting 4 22.8
2020-Jul-06 18:35 092 2 gusting 4 23.3
2020-Jul-06 18:30 058 1 gusting 3 23.3
2020-Jul-06 18:25 086 1 gusting 2 22.8
2020-Jul-06 18:20 082 1 gusting 3 23.3
2020-Jul-06 18:15 049 1 gusting 2 23.3
2020-Jul-06 18:10 023 1 gusting 4 23.3
2020-Jul-06 18:05 017 2 gusting 4 23.3
2020-Jul-06 18:00 099 0 gusting 3 23.3
2020-Jul-06 17:55 051 1 gusting 4 23.3
2020-Jul-06 17:50 123 1 gusting 4 23.3
2020-Jul-06 17:45 037 1 gusting 4 22.8
2020-Jul-06 17:40 229 2 gusting 4 22.2
2020-Jul-06 17:35 053 1 gusting 5 21.7
2020-Jul-06 17:30 064 3 gusting 5 22.2
2020-Jul-06 17:25 047 2 gusting 4 22.2
2020-Jul-06 17:20 060 0 gusting 4 22.2
2020-Jul-06 17:15 055 2 gusting 4 21.7
2020-Jul-06 17:10 056 2 gusting 3 21.7
2020-Jul-06 17:05 009 2 gusting 4 21.7
2020-Jul-06 17:00 012 1 gusting 4 21.7
2020-Jul-06 16:55 044 1 gusting 5 21.1
2020-Jul-06 16:50 033 3 gusting 5 21.1
2020-Jul-06 16:45 358 1 gusting 5 21.1
2020-Jul-06 16:40 045 3 gusting 5 21.1
2020-Jul-06 16:35 226 1 gusting 4 20.6
2020-Jul-06 16:30 340 2 gusting 6 20.6
2020-Jul-06 16:25 030 3 gusting 6 20.6
2020-Jul-06 16:20 079 1 gusting 4 20.6
2020-Jul-06 16:15 033 2 gusting 4 20.6
2020-Jul-06 16:10 043 2 gusting 4 20.6
2020-Jul-06 16:05 044 1 gusting 4 20.6
2020-Jul-06 16:00 026 3 gusting 4 20.6
2020-Jul-06 15:55 013 1 gusting 2 20.6
2020-Jul-06 15:50 005 1 gusting 4 20.6
2020-Jul-06 15:45 030 1 gusting 4 20.0
2020-Jul-06 15:40 034 1 gusting 2 20.0
2020-Jul-06 15:35 043 0 gusting 2 20.0
2020-Jul-06 15:30 013 1 gusting 2 20.0
2020-Jul-06 15:25 099 0 gusting 2 20.0
2020-Jul-06 15:20 093 0 gusting 3 20.0
2020-Jul-06 15:15 098 19.4
2020-Jul-06 15:10 025 1 gusting 2 18.9
2020-Jul-06 15:05 109 0 gusting 1 18.9
2020-Jul-06 15:00 029 0 gusting 1 18.3
2020-Jul-06 14:55 056 1 gusting 2 18.3
2020-Jul-06 14:50 036 1 gusting 3 18.3
2020-Jul-06 14:45 352 2 gusting 3 18.3
2020-Jul-06 14:40 069 0 gusting 1 18.3
2020-Jul-06 14:35 033 0 gusting 3 18.3
2020-Jul-06 14:30 046 1 gusting 4 18.3
2020-Jul-06 14:25 019 2 gusting 5 18.3
2020-Jul-06 14:20 051 2 gusting 5 18.3
2020-Jul-06 14:15 027 3 gusting 4 18.9
2020-Jul-06 14:10 040 18.9
2020-Jul-06 14:05 025 18.9
2020-Jul-06 14:00 042 1 gusting 3 18.9
2020-Jul-06 13:55 040 1 gusting 3 18.9
2020-Jul-06 13:50 027 1 gusting 2 18.9
2020-Jul-06 13:45 027 0 gusting 1 18.9
2020-Jul-06 13:40 027 0 gusting 2 18.9
2020-Jul-06 13:35 025 1 gusting 3 18.9
2020-Jul-06 13:30 027 0 gusting 3 18.9
2020-Jul-06 13:25 025 0 gusting 3 18.9
2020-Jul-06 13:20 044 1 gusting 2 18.9
2020-Jul-06 13:15 041 0 gusting 2 18.9
2020-Jul-06 13:10 044 0 gusting 2 18.9
2020-Jul-06 13:05 356 1 gusting 3 18.3
2020-Jul-06 13:00 004 2 gusting 4 18.3
2020-Jul-06 12:55 043 18.3
2020-Jul-06 12:50 044 18.9
2020-Jul-06 12:45 020 18.3
2020-Jul-06 12:40 017 18.3
2020-Jul-06 12:35 018 18.3
2020-Jul-06 12:30 018 1 gusting 3 18.3
2020-Jul-06 12:25 025 2 gusting 4 18.3
2020-Jul-06 12:20 042 0 gusting 2 18.3
2020-Jul-06 12:15 042 1 gusting 2 18.3
2020-Jul-06 12:10 030 1 gusting 3 18.3
2020-Jul-06 12:05 055 1 gusting 3 18.3
2020-Jul-06 12:00 044 18.3
2020-Jul-06 11:55 004 18.3
2020-Jul-06 11:50 004 17.8
2020-Jul-06 11:45 001 17.8
2020-Jul-06 11:40 016 0 gusting 0 17.8
2020-Jul-06 11:35 016 17.8
2020-Jul-06 11:30 016 0 gusting 2 17.8
2020-Jul-06 11:25 354 1 gusting 3 17.8
2020-Jul-06 11:20 016 2 gusting 3 17.8
2020-Jul-06 11:15 333 17.8
2020-Jul-06 11:10 333 17.8
2020-Jul-06 11:05 009 17.8
2020-Jul-06 11:00 057 0 gusting 3 17.2
2020-Jul-06 10:55 013 1 gusting 3 17.2
2020-Jul-06 10:50 020 1 gusting 2 17.2
2020-Jul-06 10:45 021 1 gusting 2 17.2
2020-Jul-06 10:40 012 0 gusting 1 17.2
2020-Jul-06 10:35 009 0 gusting 1 17.2
2020-Jul-06 10:30 358 17.2
2020-Jul-06 10:25 358 0 gusting 3 17.2
2020-Jul-06 10:20 005 0 gusting 4 17.2
2020-Jul-06 10:15 333 1 gusting 2 17.2
2020-Jul-06 10:10 359 0 gusting 2 17.2
2020-Jul-06 10:05 318 1 gusting 2 17.2
2020-Jul-06 10:00 018 17.2
2020-Jul-06 09:55 006 17.2
2020-Jul-06 09:50 001 17.2
2020-Jul-06 09:45 001 17.2
2020-Jul-06 09:40 001 17.2
2020-Jul-06 09:35 053 17.2
2020-Jul-06 09:30 069 17.2
2020-Jul-06 09:25 069 17.2
2020-Jul-06 09:20 070 17.2
2020-Jul-06 09:15 069 17.2
2020-Jul-06 09:10 069 16.7
2020-Jul-06 09:05 070 16.7
2020-Jul-06 09:00 070 16.7
2020-Jul-06 08:55 069 16.7
2020-Jul-06 08:50 069 16.7
2020-Jul-06 08:45 070 16.7
2020-Jul-06 08:40 069 16.7
2020-Jul-06 08:35 069 16.7
2020-Jul-06 08:30 069 16.7
2020-Jul-06 08:25 070 16.7
2020-Jul-06 08:20 070 16.7
2020-Jul-06 08:15 070 16.7
2020-Jul-06 08:10 070 16.7
2020-Jul-06 08:05 070 16.7
2020-Jul-06 08:00 069 16.7
2020-Jul-06 07:55 070 16.7
2020-Jul-06 07:50 069 16.7
2020-Jul-06 07:45 069 17.2
2020-Jul-06 07:40 069 17.2
2020-Jul-06 07:35 069 17.2
2020-Jul-06 07:30 070 17.2
2020-Jul-06 07:25 070 17.2
2020-Jul-06 07:20 070 17.2
2020-Jul-06 07:15 070 17.2
2020-Jul-06 07:10 070 17.2
2020-Jul-06 07:05 070 17.2
2020-Jul-06 07:00 070 17.2
2020-Jul-06 06:55 070 17.2
2020-Jul-06 06:50 071 17.2
2020-Jul-06 06:45 017 17.2
2020-Jul-06 06:40 016 17.2
2020-Jul-06 06:35 016 17.2
2020-Jul-06 06:30 016 17.2
2020-Jul-06 06:25 016 17.2
2020-Jul-06 06:20 016 17.2
2020-Jul-06 06:15 016 17.2
2020-Jul-06 06:10 016 17.2
2020-Jul-06 06:05 017 17.2
2020-Jul-06 06:00 016 17.2
2020-Jul-06 05:55 016 17.2
2020-Jul-06 05:50 016 17.2
2020-Jul-06 05:45 016 17.2
2020-Jul-06 05:40 016 17.2
2020-Jul-06 05:35 016 17.2
2020-Jul-06 05:30 030 17.2
2020-Jul-06 05:25 032 17.2
2020-Jul-06 05:20 032 17.2
2020-Jul-06 05:15 032 17.2
2020-Jul-06 05:10 032 1 gusting 1 17.2
2020-Jul-06 05:05 032 0 gusting 2 17.2
2020-Jul-06 05:00 032 17.2
2020-Jul-06 04:55 019 0 gusting 2 17.2
2020-Jul-06 04:50 032 1 gusting 2 17.2
2020-Jul-06 04:45 231 17.2
2020-Jul-06 04:40 231 17.2
2020-Jul-06 04:35 231 17.2
2020-Jul-06 04:30 231 17.2
2020-Jul-06 04:25 230 17.2
2020-Jul-06 04:20 230 17.2
2020-Jul-06 04:15 231 17.2
2020-Jul-06 04:10 231 17.2
2020-Jul-06 04:05 174 17.2
2020-Jul-06 04:00 145 17.2
2020-Jul-06 03:55 145 17.2
2020-Jul-06 03:50 353 17.2
2020-Jul-06 03:45 353 17.8
2020-Jul-06 03:40 353 17.8
2020-Jul-06 03:35 353 17.8
2020-Jul-06 03:30 351 17.8
2020-Jul-06 03:25 027 17.8
2020-Jul-06 03:20 027 17.8
2020-Jul-06 03:15 027 0 gusting 5 17.8
2020-Jul-06 03:10 036 2 gusting 6 17.8
2020-Jul-06 03:05 027 3 gusting 6 18.3
2020-Jul-06 03:00 345 2 gusting 12 18.9
2020-Jul-06 02:55 330 4 gusting 11 19.4
2020-Jul-06 02:50 015 3 gusting 6 19.4
2020-Jul-06 02:45 337 1 gusting 1 19.4
2020-Jul-06 02:40 004 0 gusting 1 19.4
2020-Jul-06 02:35 003 19.4
2020-Jul-06 02:30 004 0 gusting 1 19.4
2020-Jul-06 02:25 105 0 gusting 0 19.4
2020-Jul-06 02:20 106 0 gusting 0 19.4
2020-Jul-06 02:15 105 0 gusting 0 19.4
2020-Jul-06 02:10 105 0 gusting 0 19.4
2020-Jul-06 02:05 118 19.4
2020-Jul-06 02:00 118 19.4
2020-Jul-06 01:55 118 19.4
2020-Jul-06 01:50 118 19.4
2020-Jul-06 01:45 118 19.4
2020-Jul-06 01:40 118 19.4
2020-Jul-06 01:35 118 19.4
2020-Jul-06 01:30 119 19.4
2020-Jul-06 01:25 119 19.4
2020-Jul-06 01:20 118 19.4
2020-Jul-06 01:15 118 19.4
2020-Jul-06 01:10 119 19.4
2020-Jul-06 01:05 118 19.4
2020-Jul-06 01:00 119 0 gusting 2 19.4
2020-Jul-06 00:55 138 19.4
2020-Jul-06 00:50 094 0 gusting 1 19.4
2020-Jul-06 00:45 125 19.4
2020-Jul-06 00:40 120 0 gusting 1 19.4
2020-Jul-06 00:35 120 0 gusting 2 19.4
2020-Jul-06 00:30 117 19.4
2020-Jul-06 00:25 118 0 gusting 2 19.4
2020-Jul-06 00:20 111 19.4
2020-Jul-06 00:15 129 0 gusting 3 19.4
2020-Jul-06 00:10 088 0 gusting 3 19.4
2020-Jul-06 00:05 149 1 gusting 3 19.4
2020-Jul-06 00:00 150 0 gusting 2 19.4
2020-Jul-05 23:55 148 0 gusting 2 20.0
2020-Jul-05 23:50 145 0 gusting 1 20.0
2020-Jul-05 23:45 125 0 gusting 1 20.0
2020-Jul-05 23:40 090 0 gusting 2 20.0
2020-Jul-05 23:35 103 0 gusting 4 20.0
2020-Jul-05 23:30 151 0 gusting 4 20.0
2020-Jul-05 23:25 103 1 gusting 4 20.0
2020-Jul-05 23:20 092 2 gusting 4 20.0
2020-Jul-05 23:15 138 1 gusting 3 20.6
2020-Jul-05 23:10 153 0 gusting 5 20.6
2020-Jul-05 23:05 117 2 gusting 5 20.6
2020-Jul-05 23:00 061 1 gusting 4 20.6
2020-Jul-05 22:55 077 1 gusting 6 20.6
2020-Jul-05 22:50 077 1 gusting 6 20.6
2020-Jul-05 22:45 091 0 gusting 4 20.6
2020-Jul-05 22:40 110 0 gusting 4 20.6
2020-Jul-05 22:35 077 0 gusting 5 20.6
2020-Jul-05 22:30 224 0 gusting 3 20.0
2020-Jul-05 22:25 101 0 gusting 3 20.0
2020-Jul-05 22:20 155 0 gusting 3 20.0
2020-Jul-05 22:15 249 0 gusting 6 20.0
2020-Jul-05 22:10 152 1 gusting 6 20.0
2020-Jul-05 22:05 226 1 gusting 4 20.0
2020-Jul-05 22:00 065 0 gusting 5 20.0
2020-Jul-05 21:55 116 2 gusting 5 20.6
2020-Jul-05 21:50 103 1 gusting 4 20.6
2020-Jul-05 21:45 083 2 gusting 4 20.6
2020-Jul-05 21:40 085 2 gusting 6 20.6
2020-Jul-05 21:35 101 3 gusting 6 21.1
2020-Jul-05 21:30 053 3 gusting 6 21.7
2020-Jul-05 21:25 141 0 gusting 5 21.7
2020-Jul-05 21:20 083 2 gusting 6 22.2
2020-Jul-05 21:15 105 2 gusting 6 22.2
2020-Jul-05 21:10 025 3 gusting 6 22.2
2020-Jul-05 21:05 086 1 gusting 5 22.8
2020-Jul-05 21:00 143 1 gusting 6 22.2
2020-Jul-05 20:55 209 3 gusting 6 22.2
2020-Jul-05 20:50 161 1 gusting 6 22.8
2020-Jul-05 20:45 120 3 gusting 6 22.2
2020-Jul-05 20:40 123 1 gusting 6 22.2
2020-Jul-05 20:35 125 2 gusting 6 22.8
2020-Jul-05 20:30 165 3 gusting 6 22.8
2020-Jul-05 20:25 090 1 gusting 6 22.8
2020-Jul-05 20:20 138 1 gusting 5 23.3
2020-Jul-05 20:15 097 3 gusting 6 23.3
2020-Jul-05 20:10 055 3 gusting 6 23.3
2020-Jul-05 20:05 131 4 gusting 7 23.3
2020-Jul-05 20:00 108 3 gusting 8 23.9
2020-Jul-05 19:55 091 1 gusting 6 23.9
2020-Jul-05 19:50 123 1 gusting 5 23.9
2020-Jul-05 19:45 084 0 gusting 5 24.4
2020-Jul-05 19:40 111 0 gusting 6 24.4
2020-Jul-05 19:35 167 2 gusting 6 25.0
2020-Jul-05 19:30 226 1 gusting 4 24.4
2020-Jul-05 19:25 064 2 gusting 4 24.4
2020-Jul-05 19:20 092 2 gusting 5 24.4
2020-Jul-05 19:15 120 3 gusting 6 25.0
2020-Jul-05 19:10 120 1 gusting 6 25.0
2020-Jul-05 19:05 133 2 gusting 5 25.0
2020-Jul-05 19:00 137 3 gusting 5 25.6
2020-Jul-05 18:55 120 1 gusting 5 26.1
2020-Jul-05 18:50 064 1 gusting 3 26.1
2020-Jul-05 18:45 150 1 gusting 4 26.1
2020-Jul-05 18:40 116 2 gusting 4 26.7
2020-Jul-05 18:35 104 2 gusting 4 26.1
2020-Jul-05 18:30 086 2 gusting 3 27.2
2020-Jul-05 18:25 081 27.2
2020-Jul-05 18:20 229 0 gusting 5 26.7
2020-Jul-05 18:15 155 2 gusting 5 26.7
2020-Jul-05 18:10 114 0 gusting 3 26.7
2020-Jul-05 18:05 110 0 gusting 3 26.1
2020-Jul-05 18:00 108 1 gusting 4 26.1
2020-Jul-05 17:55 136 2 gusting 4 26.1
2020-Jul-05 17:50 108 1 gusting 6 26.1
2020-Jul-05 17:45 155 1 gusting 5 26.7
2020-Jul-05 17:40 117 1 gusting 4 26.7
2020-Jul-05 17:35 256 1 gusting 4 26.7
2020-Jul-05 17:30 131 1 gusting 4 27.2
2020-Jul-05 17:25 079 2 gusting 4 27.2
2020-Jul-05 17:20 205 0 gusting 3 26.7
2020-Jul-05 17:15 038 0 gusting 2 26.7
2020-Jul-05 17:10 136 0 gusting 2 26.7
2020-Jul-05 17:05 075 0 gusting 1 26.1
2020-Jul-05 17:00 014 0 gusting 1 26.1
2020-Jul-05 16:55 037 0 gusting 2 25.6
2020-Jul-05 16:50 164 0 gusting 3 25.6
2020-Jul-05 16:45 229 1 gusting 4 25.0
2020-Jul-05 16:41 055 1 gusting 4 24.4
2020-Jul-05 16:35 006 24.4
2020-Jul-05 16:30 316 24.4
2020-Jul-05 16:25 288 0 gusting 1 24.4
2020-Jul-05 16:20 085 0 gusting 1 24.4
2020-Jul-05 16:15 293 23.9
2020-Jul-05 16:10 023 0 gusting 1 24.4
2020-Jul-05 16:05 023 0 gusting 1 24.4
2020-Jul-05 16:00 121 0 gusting 1 23.9
2020-Jul-05 15:55 229 0 gusting 2 23.9
2020-Jul-05 15:50 104 0 gusting 2 23.9
2020-Jul-05 15:45 242 23.3
2020-Jul-05 15:40 145 0 gusting 1 23.3
2020-Jul-05 15:35 101 22.8
2020-Jul-05 15:30 109 0 gusting 1 22.8
2020-Jul-05 15:25 226 0 gusting 1 22.2
2020-Jul-05 15:20 151 22.2
2020-Jul-05 15:15 191 22.2
2020-Jul-05 15:10 191 21.7
2020-Jul-05 15:05 142 0 gusting 3 21.7
2020-Jul-05 15:01 159 1 gusting 3 21.1
2020-Jul-05 14:55 086 1 gusting 2 21.1
2020-Jul-05 14:50 088 0 gusting 1 21.1
2020-Jul-05 14:45 117 21.1
2020-Jul-05 14:40 117 21.1
2020-Jul-05 14:35 134 21.1
2020-Jul-05 14:30 136 21.1
2020-Jul-05 14:25 100 21.1
2020-Jul-05 14:20 101 21.1
2020-Jul-05 14:15 162 21.1
2020-Jul-05 14:10 115 21.1
2020-Jul-05 14:05 113 21.1
2020-Jul-05 14:00 130 21.1
2020-Jul-05 13:55 130 21.7
2020-Jul-05 13:50 186 21.1
2020-Jul-05 13:45 173 21.1
2020-Jul-05 13:40 173 21.1
2020-Jul-05 13:35 231 21.1
2020-Jul-05 13:30 229 21.1
2020-Jul-05 13:25 183 21.1
2020-Jul-05 13:20 183 21.1
2020-Jul-05 13:15 184 21.1
2020-Jul-05 13:10 240 21.1
2020-Jul-05 13:05 226 20.6
2020-Jul-05 13:00 226 20.6
2020-Jul-05 12:55 227 20.6
2020-Jul-05 12:50 226 20.0
2020-Jul-05 12:45 226 20.0
2020-Jul-05 12:40 226 20.0
2020-Jul-05 12:35 226 20.0
2020-Jul-05 12:30 226 20.0
2020-Jul-05 12:25 226 20.0
2020-Jul-05 12:20 226 20.0
2020-Jul-05 12:15 226 19.4
2020-Jul-05 12:10 226 19.4
2020-Jul-05 12:05 226 19.4
2020-Jul-05 12:00 226 19.4
2020-Jul-05 11:55 232 19.4
2020-Jul-05 11:50 232 19.4
2020-Jul-05 11:45 188 19.4
2020-Jul-05 11:40 130 19.4
2020-Jul-05 11:35 215 19.4
2020-Jul-05 11:30 260 19.4
2020-Jul-05 11:25 243 18.9
2020-Jul-05 11:20 243 18.9
2020-Jul-05 11:15 267 18.9
2020-Jul-05 11:10 228 18.9
2020-Jul-05 11:05 252 18.9
2020-Jul-05 11:00 245 18.9
2020-Jul-05 10:55 253 18.9
2020-Jul-05 10:50 212 18.9
2020-Jul-05 10:45 287 18.9
2020-Jul-05 10:40 118 18.3
2020-Jul-05 10:35 193 18.3
2020-Jul-05 10:30 193 18.3
2020-Jul-05 10:25 195 18.3
2020-Jul-05 10:20 188 18.3
2020-Jul-05 10:15 224 18.3
2020-Jul-05 10:10 166 18.3
2020-Jul-05 10:05 167 18.3
2020-Jul-05 10:00 158 18.3
2020-Jul-05 09:55 132 18.3
2020-Jul-05 09:50 132 18.3
2020-Jul-05 09:45 109 18.3
2020-Jul-05 09:40 134 18.3
2020-Jul-05 09:35 173 18.3
2020-Jul-05 09:30 173 18.3
2020-Jul-05 09:25 173 18.3
2020-Jul-05 09:20 173 18.3
2020-Jul-05 09:15 172 18.3
2020-Jul-05 09:10 166 18.3
2020-Jul-05 09:05 281 18.3
2020-Jul-05 09:00 189 18.3